Miscellaneous Local Product
Issued by NWS North Platte, NE

Home | Current Version | Previous Version | Text Only | Print | Product List | Glossary On
Versions: 1 2 3 4 5 6 7 8 9 10 11 12 13 14 15 16 17 18 19 20 21 22 23 24 25 26 27 28 29 30 31 32 33 34 35 36 37 38 39 40 41 42 43 44 45 46 47 48 49 50
000
AXUS43 KLBF 181010
MISLBF


WESTERN AND NORTH CENTRAL NEBRASKA HOURLY WEATHER ROUNDUP
NATIONAL WEATHER SERVICE NORTH PLATTE NE
400 AM CST THU DEC 18 2014

***STATIONS NOT REPORTING VARIABLES SUCH AS SKY/WEATHER OR
PRESSURE ARE PROVIDED BY THE NEBRASKA DEPARTMENT OF
ROADS...RAWS...AND APRS NETWORKS...AND ARE NOT UNDER
NATIONAL WEATHER SERVICE QUALITY CONTROL***

...OBSERVATIONS IN AND NEAR THE EASTERN PANHANDLE OF NEBRASKA...

CITY           SKY/WX    TMP DP  RH WIND       PRES   REMARKS
PINE RIDGE     CLOUDY    16  14  92 SW7       30.01S FOG     WCI   6
CHADRON        FOG       13  11  92 S7        30.03R VSB 1/4 WCI   3
ALLIANCE       FOG       14  11  87 SW6       30.00S VSB 1/2 WCI   5
SIDNEY         MOCLDY    10   7  87 W6        30.00R WCI   0
WHITECLAY        N/A     12   8  83 S5          N/A  WCI   4
CRESCENT LAKE    N/A     20  18  92 CALM        N/A
LISCO            N/A     10   5  79 CALM        N/A
BIG SPRINGS      N/A     25  24  95 SW3         N/A
$$

...OBSERVATIONS IN NORTH CENTRAL NEBRASKA...

CITY           SKY/WX    TMP DP  RH WIND       PRES   REMARKS
VALENTINE      CLOUDY    24  21  88 SW8       30.07S WCI  15
THEDFORD       CLOUDY    24  23  93 SW8       30.07F WCI  15
AINSWORTH      CLOUDY    23  22  97 S3        30.08F FOG
O`NEILL        CLOUDY    21  20  96 SE3       30.14F
ORD            CLOUDY    23  20  88 SE6       30.13F WCI  16
BROKEN BOW     CLOUDY    24  22  91 S6        30.10F WCI  17
BROWNLEE         N/A     22  20  93 CALM        N/A
SPRINGVIEW       N/A     22  20  91 CALM        N/A
BREWSTER         N/A     26  26  99 CALM        N/A
ROSE             N/A     27  27 100 MISG        N/A
SARGENT          N/A     23  21  93 CALM        N/A
COMSTOCK         N/A     29  26  90 S5          N/A  WCI  24
CHAMBERS         N/A     21  18  89 CALM        N/A
$$

...OBSERVATIONS IN SOUTHWEST NEBRASKA AND FAR NORTHEAST COLORADO...

CITY           SKY/WX    TMP DP  RH WIND       PRES   REMARKS
WRAY           CLOUDY   N/A N/A N/A S3        30.03F
IMPERIAL       CLOUDY    26  22  84 SW7       30.06R WCI  18
OGALLALA       CLOUDY    25  24  94 SW6       30.05S WCI  18
NORTH PLATTE   CLOUDY    24  23  96 SW6       30.08F FOG     WCI  17
MCCOOK         CLOUDY    22  20  92 E3        30.09F FOG
LEXINGTON      CLOUDY    25  23  91 CALM      30.12S
PAXTON           N/A     25  24  93 SW3         N/A
BRADY            N/A     23  21  93 CALM        N/A
GOTHENBURG       N/A     27  25  91 CALM        N/A
CALLAWAY         N/A     23  22  96 SE3         N/A
$$

...NORTH PLATTE AREA...

CITY           SKY/WX    TMP DP  RH WIND       PRES   REMARKS
AIRPORT        CLOUDY    24  23  96 SW6       30.08F FOG     WCI  17
DOWNTOWN         N/A     23  22  94 CALM        N/A
$$

...SOME WEATHER OBSERVATIONS FROM AROUND THE REGION...

CITY           SKY/WX    TMP DP  RH WIND       PRES   REMARKS
DENVER         PTCLDY    27  24  89 SW5       29.98R WCI  22
LARAMIE        PTCLDY    11   8  88 NE7       29.96S WCI   0
CHEYENNE       CLEAR     23  16  74 W7        29.97R WCI  15
SCOTTSBLUFF    FOG       11   9  92 NW8       30.02S VSB 1/4 WCI  -1
RAPID CITY     CLOUDY    23  20  88 S9        30.00R WCI  13
PIERRE         CLOUDY    20  18  92 SE10      30.11F WCI   9
WINNER         CLOUDY    23  20  88 SE9       30.11F WCI  13
SIOUX FALLS    CLOUDY    18  14  84 E5        30.22F WCI  11
OMAHA          CLOUDY    28  20  71 E6        30.25S WCI  22
GRAND ISLAND   CLOUDY    23  21  92 SE5       30.17F WCI  17
KANSAS CITY    LGT SNOW  28  26  92 E7        30.22S VSB 1   WCI  21
WICHITA        LGT SNOW  32  29  88 SE7       30.13F FOG     WCI  26
HAYS           CLOUDY    25  18  74 NE8       30.12S WCI  16
LIBERAL        CLOUDY    36  30  80 E5        30.05S VSB 1   WCI  32
GOODLAND       CLOUDY    23  21  92 SE3       30.04S
$$



USA.gov is the U.S. government's official web portal to all federal, state and local government web resources and services.